カタログに戻る

STARLINK-35768

運用中通信VLEO
NORAD 66832·PAYLOAD·🇺🇸 United States

打ち上げ Dec 2, 2025 から Vandenberg Space Force Base

Loading…

次のパス (今後24時間)

TLE

最新Source: CelesTrak SupGP

元期: Sep 14, 2026, 22:58 UTC

1 66832C 25280M   26257.95743056 -.00020499  00000+0 -17176-2 0  2579
2 66832  70.0011 217.3052 0003429 264.4516 137.1108 14.98346601    16

AllMySatでSTARLINK-35768をリアルタイム追跡

Download on the App Store